Location: Newark
(37.8333°N, 119.5000°W)
Time: 22:37:30
(UTC+00:00)

S-56A Canister/Altair - All Passes

Search period start: 19 August 2019 00:00
Search period end: 29 August 2019 00:00
Orbit: 633 x 2499 km, 38.9° (Epoch: 18 August)

Date Brightness Start Highest point End Pass type
(mag) Time Alt. Az. Time Alt. Az. Time Alt. Az.
19 Aug - 04:03:34 10° S 04:06:15 15° SSE 04:08:46 10° ESE visible
19 Aug - 06:04:58 10° WSW 06:09:22 61° SSE 06:14:01 10° E night (unlit)
19 Aug - 08:08:26 10° W 08:12:59 79° N 08:18:52 10° E visible
19 Aug - 10:11:40 10° W 10:16:55 67° SSW 10:24:34 10° ESE visible
19 Aug - 12:15:33 10° W 12:21:05 27° SSW 12:28:39 10° SSE visible
20 Aug - 03:31:33 10° S 03:33:42 13° SSE 03:35:44 10° ESE visible
20 Aug - 05:32:25 10° SW 05:36:54 53° SSE 05:41:19 10° E visible
20 Aug - 07:35:58 10° W 07:40:26 79° N 07:45:50 10° E night (unlit)
20 Aug - 09:39:18 10° W 09:44:16 72° SSW 09:51:19 10° ESE visible
20 Aug - 11:42:59 10° W 11:48:18 29° SSW 11:55:35 10° SSE visible
21 Aug - 02:59:46 10° SSE 03:01:08 11° SSE 03:02:27 10° SE daylight
21 Aug - 04:59:50 10° SW 05:04:25 46° SSE 05:08:41 10° E visible
21 Aug - 07:03:28 10° W 07:07:53 80° N 07:12:56 10° E night (unlit)
21 Aug - 09:06:55 10° W 09:11:40 77° SSW 09:18:09 10° ESE visible
21 Aug - 11:10:29 10° W 11:15:33 31° SSW 11:22:32 10° SSE visible
22 Aug - 04:27:12 10° SW 04:31:56 40° SSE 04:36:05 10° E visible
22 Aug - 06:30:54 10° W 06:35:21 82° N 06:40:08 10° E visible
22 Aug - 08:34:30 10° W 08:39:05 83° SSW 08:45:04 10° ESE night (unlit)
22 Aug - 10:38:00 10° W 10:42:52 34° SSW 10:49:30 10° SE visible
23 Aug - 03:54:31 10° SW 03:59:25 36° SSE 04:03:33 10° E visible
23 Aug - 05:58:15 10° W 06:02:51 86° N 06:07:26 10° E visible
23 Aug - 08:02:04 10° W 08:06:32 88° SSW 08:12:03 10° ESE night (unlit)
23 Aug - 10:05:33 10° W 10:10:12 36° SSW 10:16:30 10° SE visible
23 Aug - 12:13:10 10° SW 12:14:13 10° SW 12:15:18 10° SSW visible
24 Aug - 03:21:48 10° SW 03:26:54 32° SSE 03:31:01 10° E visible
24 Aug - 05:25:33 10° WSW 05:30:21 89° SSE 05:34:48 10° E visible
24 Aug - 07:29:34 10° W 07:34:00 87° N 07:39:09 10° E night (unlit)
24 Aug - 09:33:06 10° W 09:37:36 39° SSW 09:43:33 10° SE night (unlit)
24 Aug - 11:39:29 10° SW 11:41:28 11° SSW 11:43:38 10° SSW visible
25 Aug - 02:49:01 10° SSW 02:54:19 29° SSE 02:58:31 10° E daylight
25 Aug - 04:52:46 10° WSW 04:57:49 83° S 05:02:16 10° E visible
25 Aug - 06:57:02 10° W 07:01:29 82° N 07:06:20 10° E visible
25 Aug - 09:00:39 10° W 09:05:02 43° SSW 09:10:38 10° SE night (unlit)
25 Aug - 11:06:19 10° WSW 11:08:46 13° SSW 11:11:29 10° S visible
26 Aug - 02:16:12 10° SSW 02:21:43 27° SSE 02:25:59 10° E daylight
26 Aug - 04:19:54 10° WSW 04:25:19 76° SSE 04:29:47 10° E visible
26 Aug - 06:24:25 10° W 06:28:58 79° N 06:33:35 10° E visible
26 Aug - 08:28:10 10° W 08:32:30 48° SSW 08:37:47 10° SE night (unlit)
26 Aug - 10:33:23 10° WSW 10:36:05 14° SSW 10:39:10 10° S night (unlit)
27 Aug - 01:43:21 10° SSW 01:49:04 25° SSE 01:53:28 10° E daylight
27 Aug - 03:46:57 10° WSW 03:52:47 70° SSE 03:57:19 10° E visible
27 Aug - 05:51:42 10° W 05:56:27 78° N 06:00:57 10° E visible
27 Aug - 07:55:40 10° W 08:00:00 54° SSW 08:05:00 10° SE night (unlit)
27 Aug - 10:00:32 10° WSW 10:03:27 15° SSW 10:06:48 10° S night (unlit)
28 Aug - 01:10:29 10° SSW 01:16:23 23° SSE 01:20:54 10° E daylight
28 Aug - 03:13:55 10° WSW 03:20:13 64° SSE 03:24:55 10° E visible
28 Aug - 05:18:55 10° W 05:23:56 78° N 05:28:21 10° E visible
28 Aug - 07:23:07 10° W 07:27:30 61° SSW 07:32:17 10° ESE night (unlit)
28 Aug - 09:27:46 10° WSW 09:30:51 17° SSW 09:34:24 10° S night (unlit)
